Flag for Papua New Guinea Weather past 2 weeks in Lae, Papua New Guinea

Now
75 °F

Partly cloudy.


Feels Like: 75 °F
Forecast: 71 / 87 °F
Wind: No wind

Location: Moresby

Current Time: Jul 31, 2014 at 3:47:25 AM

Latest Report: Jul 31, 2014 at 3:00 AM


Visibility: N/A

Pressure: 29.86 "Hg

Humidity: 83%

Dew point: 70 °F

Location of LaeLocation

Historic Weather in Lae — Graph

°F

Lae temperature yesterday

Maximum temperature yesterday: 88 °F (at 1:00 PM)
Minimum temperature yesterday: 75 °F (at 1:00 AM)
Average temperature yesterday: 79 °F

Past Weeks' High & Low Weather Summary

 TemperatureHumidityPressure
High88 °F (Jul 27, 2:00 PM)100% (Jul 27, 6:00 AM)29.98 "Hg (Jul 27, 6:00 AM)
Low70 °F (Jul 19, 6:00 AM)32% (Jul 23, 3:00 PM)29.77 "Hg (Jul 17, 3:00 PM)
Average78 °F70%29.87 "Hg
* Reported Jul 16 3:00 AM — Jul 31 2:00 AM, Lae, Weather by CustomWeather, © 2014

Note: Actual official high and low records may vary slightly from our data, if they occured in-between our weather recording intervals... More about our weather records

Advertising

Lae weather history for previous 24 hours

 ConditionsComfort  
Time TempWeatherWind HumidityBarometerVisibility
2:00 AM
Jul 31
75 °FPartly cloudy.No wind83%29.86 "HgN/A
1:00 AM75 °FPartly cloudy.6 mph83%29.86 "HgN/A
12:00 AM75 °FPartly cloudy.7 mph83%29.89 "HgN/A
11:00 PM
Jul 30
75 °FPassing clouds.5 mph83%29.89 "HgN/A
10:00 PM75 °FPassing clouds.9 mph78%29.89 "HgN/A
9:00 PM77 °FPassing clouds.16 mph74%29.89 "HgN/A
8:00 PM77 °FPassing clouds.16 mph74%29.86 "HgN/A
7:00 PM79 °FPassing clouds.14 mph70%29.86 "HgN/A
6:00 PM81 °FBroken clouds.14 mph70%29.83 "HgN/A
4:00 PM84 °FPassing clouds.16 mph58%29.80 "HgN/A
3:00 PM84 °FPassing clouds.16 mph58%29.80 "HgN/A
2:00 PM84 °FScattered clouds.16 mph58%29.83 "HgN/A
1:00 PM88 °FBroken clouds.16 mph55%29.83 "HgN/A
12:00 PM84 °FMore clouds than sun.14 mph58%29.86 "HgN/A
11:00 AM82 °FOvercast.12 mph58%29.89 "HgN/A
9:00 AM79 °FBroken clouds.9 mph61%29.92 "HgN/A
8:00 AM77 °FBroken clouds.7 mph74%29.92 "HgN/A
7:00 AM75 °FOvercast.9 mph78%29.89 "HgN/A
6:00 AM75 °FMostly cloudy.9 mph78%29.89 "HgN/A
4:00 AM75 °FPassing clouds.9 mph83%29.86 "HgN/A
3:00 AM75 °FPassing clouds.12 mph83%29.89 "HgN/A
Weather by CustomWeather, © 2014

See weather overviewHow to use our weather pages